Triuchirapalli, India

10:16 AM IST on February 09, 2016 (GMT +0530)
Tiruchirappalli

Weather History for VOTR - October, 2011

Change the Weather History Date:

Thursday, October 27, 2011

  Actual Average Record
Temperature  
Mean Temperature 78 °F -  
Max Temperature 84 °F 83 °F 92 °F (2013)
Min Temperature 73 °F 74 °F 69 °F (2003)
Cooling Degree Days 14    
Growing Degree Days 28 (Base 50)    
Moisture  
Dew Point 75 °F    
Average Humidity 86    
Maximum Humidity 96    
Minimum Humidity 69    
Precipitation  
Precipitation 0.55 in - - ()
Sea Level Pressure  
Sea Level Pressure 29.84 in    
Wind  
Wind Speed 4 mph ()    
Max Wind Speed 10 mph    
Max Gust Speed -    
Visibility 4.0 miles    
Events Rain    
Averages and records for this station are not official NWS values.
T = Trace of Precipitation, MM = Missing Value Source: Averaged Metar Reports

Daily Weather History Graph

Daily Weather History Graph

Search for Another Location

Airport or City:

Trip Planner

Search our weather history database for the weather conditions in past years. The results will help you decide how hot, cold, wet, or windy it might be!

Date:

Astronomy

Oct. 27, 2011 Rise Set
Actual Time 6:05 AM IST 5:52 PM IST
Civil Twilight 5:43 AM IST 6:14 PM IST
Nautical Twilight 5:18 AM IST 6:39 PM IST
Astronomical Twilight 4:54 AM IST 7:03 PM IST
Moon 6:18 AM IST (10/27) 6:18 PM IST (10/27)
Length of Visible Light 12h 30m
Length of Day
11h 47m
New Moon, 0% of the Moon is Illuminated
Oct 27
New Moon
Nov 2
First Quarter
Nov 11
Full
Nov 18
Last Quarter
Nov 25
New

Hourly Weather History & Observations

Time (IST) Temp. Heat Index Dew Point Humidity Pressure Visibility Wind Dir Wind Speed Gust Speed Precip Events Conditions
12:10 AM 75.2 °F - 73.4 °F 94% 29.83 in 3.1 mi NE 4.6 mph - N/A   Haze
12:40 AM 75.2 °F - 73.4 °F 94% 29.83 in - NE 2.3 mph - N/A   Mostly Cloudy
1:10 AM 75.2 °F - 73.4 °F 94% 29.83 in 3.1 mi NE 3.5 mph - N/A   Haze
2:10 AM 73.4 °F - 71.6 °F 94% 29.80 in 3.1 mi NE 3.5 mph - N/A   Haze
2:30 AM 74 °F - 71 °F 89% 29.80 in 2 mi Calm Calm - -   Haze
2:40 AM 73.4 °F - 71.6 °F 94% 29.80 in 3.1 mi Calm Calm - N/A   Haze
3:10 AM 73.4 °F - 71.6 °F 94% 29.80 in 3.1 mi Calm Calm - N/A   Haze
4:10 AM 73.4 °F - 71.6 °F 94% 29.80 in 3.1 mi Calm Calm - N/A   Haze
5:10 AM 75.2 °F - 73.4 °F 94% 29.80 in 3.1 mi Calm Calm - N/A   Haze
5:30 AM 75 °F - 74 °F 96% 29.80 in 2 mi 3.5 mph - -   Haze
7:10 AM 77.0 °F - 73.4 °F 89% 29.83 in 3.7 mi Calm Calm - N/A   Mostly Cloudy
7:40 AM 77.0 °F - 71.6 °F 83% 29.86 in 3.7 mi NE 3.5 mph - N/A   Mostly Cloudy
8:10 AM 78.8 °F - 73.4 °F 83% 29.89 in 3.7 mi NE 6.9 mph - N/A   Mostly Cloudy
8:30 AM 79 °F - 76 °F 87% 29.89 in 2 mi NE 9.2 mph - -   Haze
9:40 AM 77.0 °F - 75.2 °F 94% 29.92 in 1.7 mi ENE 3.5 mph - N/A Rain Rain
11:30 AM 81 °F - 78 °F 86% 29.89 in 2 mi ENE 6.9 mph - - Rain Light Drizzle
11:40 AM 80.6 °F 87.1 °F 77.0 °F 89% 29.89 in 3.7 mi ENE 9.2 mph - N/A   Mostly Cloudy
12:10 PM 82.4 °F 90.9 °F 77.0 °F 84% 29.86 in 5.0 mi East 9.2 mph - N/A   Mostly Cloudy
12:40 PM 82.4 °F 89.5 °F 75.2 °F 79% 29.86 in 5.0 mi ENE 10.4 mph - N/A   Mostly Cloudy
1:40 PM 86.0 °F 95.1 °F 75.2 °F 70% 29.83 in 6.2 mi ENE 9.2 mph - N/A   Mostly Cloudy
2:10 PM 86.0 °F 95.1 °F 75.2 °F 70% 29.80 in 6.2 mi ENE 9.2 mph - N/A   Mostly Cloudy
2:30 PM 83 °F - 76 °F 74% 29.80 in 6 mi ENE 9.2 mph - -   Partly Cloudy
2:40 PM 84.2 °F 92.3 °F 75.2 °F 74% 29.80 in 6.2 mi ENE 9.2 mph - N/A   Mostly Cloudy
3:10 PM 82.4 °F 90.9 °F 77.0 °F 84% 29.80 in 6.2 mi East 9.2 mph - N/A   Mostly Cloudy
3:40 PM 82.4 °F 90.9 °F 77.0 °F 84% 29.77 in 6.2 mi East 9.2 mph - N/A   Mostly Cloudy
4:10 PM 82.4 °F 90.9 °F 77.0 °F 84% 29.77 in 6.2 mi East 10.4 mph - N/A   Mostly Cloudy
5:10 PM 82.4 °F 88.2 °F 73.4 °F 74% 29.80 in 6.2 mi East 8.1 mph - N/A   Mostly Cloudy
5:30 PM 83 °F - 74 °F 69% 29.79 in 6 mi East 9.2 mph - -   Partly Cloudy
6:10 PM 82.4 °F 89.5 °F 75.2 °F 79% 29.80 in 3.7 mi East 4.6 mph - N/A   Mostly Cloudy
7:10 PM 80.6 °F 86.2 °F 75.2 °F 84% 29.83 in 3.7 mi East 3.5 mph - N/A   Scattered Clouds
7:40 PM 80.6 °F 86.2 °F 75.2 °F 84% 29.86 in 3.7 mi East 3.5 mph - N/A   Scattered Clouds
8:10 PM 80.6 °F 86.2 °F 75.2 °F 84% 29.86 in 3.7 mi SE 3.5 mph - N/A   Scattered Clouds
8:30 PM 79 °F - 75 °F 85% 29.84 in 2 mi East 2.3 mph - -   Haze
8:40 PM 78.8 °F - 75.2 °F 89% 29.86 in 3.7 mi East 3.5 mph - N/A   Scattered Clouds
9:10 PM 78.8 °F - 75.2 °F 89% 29.89 in 3.7 mi North - - N/A   Scattered Clouds
9:40 PM 78.8 °F - 73.4 °F 83% 29.89 in 3.7 mi East 2.3 mph - N/A   Scattered Clouds
10:10 PM 78.8 °F - 75.2 °F 89% 29.89 in 3.7 mi ENE 2.3 mph - N/A   Scattered Clouds
10:40 PM 78.8 °F - 75.2 °F 89% 29.89 in 3.7 mi NE 3.5 mph - N/A   Scattered Clouds
11:10 PM 78.8 °F - 75.2 °F 89% 29.86 in 3.7 mi NNE 2.3 mph - N/A   Scattered Clouds
11:40 PM 77.0 °F - 73.4 °F 89% 29.86 in 3.7 mi Calm Calm - N/A   Scattered Clouds